Погода в Вальядолиде

Испания     41°39′28″N   4°43′03″W
темп.,
°C
ветер,
м/с
пор.,
м/с
влажн.,
%
обл.,
%
осадки,
мм/ч
давл.,
гПа
погр.,
м
5 мая, ср
ср523:00+11зюз345386 0.0 101644
02:00+9сз3571100 0.0 101673
05:00+6с22810 0.0 101828
08:00+6св22850 0.0 101941
11:00+13ссв11590 0.0 1018490
14:00+18з22475 0.0 10171497
17:00+19з34435 0.0 10151718
20:00+17зюз22567 0.0 101558
6 мая, чт
чт623:00+12юз336353 0.0 101730
02:00+10з337755 0.0 101626
05:00+8зюз2285100 0.0 101611
08:00+8ююз2386100 0.0 101762
11:00+14зюз575955 0.0 1017676
14:00+19зюз6842100 0.0 10161314
17:00+20зюз78437 0.0 10141583
20:00+18зюз610595 0.0 1014509
7 мая, пт
пт723:00+12з35765 0.0 101868
02:00+10з228679 0.0 101825
05:00+8юз239170 0.0 101930
08:00+8ююз23885 0.0 102058
11:00+15зюз456038 0.0 1019617
14:00+20зюз45475 0.0 10171264
17:00+22зюз46395 0.0 10151829
20:00+19з36554 0.0 1015162
8 мая, сб
сб823:00+13з33531 0.0 101720
02:00+11зюз22602 0.0 101712
05:00+10ю226347 0.0 101612
08:00+10ююв127055 0.0 101513
11:00+17ююв3454100 0.0 1013388
14:00+22юз4636100 0.0 10111638
17:00+24юз5935100 0.0 10072570
20:00+19зюз51151100 0.0 1007334
9 мая, вс
вс923:00+13ююз3554100 0.0 100771
02:00+10ююз22670 0.0 100618
05:00+8ююз3480100 0.0 100667
08:00+11ююз51553100 0.0 1005589
11:00+13юз91558100 0.0 10051412
14:00+9ююз81389100 2.4 10061305
17:00+11ююз5108093 2.5 1005963
20:00+10зюз6118762 4.2 1005868